Asian Games Village, India

7:04 AM IST on June 22, 2018 (GMT +0530)
New Delhi - GK2 | | Change Station

Elev 810 ft 28.53 °N, 77.24 °E | Updated 2 seconds ago

Haze
Haze
90.7 °F
Feels Like 105 °F
N
0
Wind Variable Wind from NNW
Gusts 1.0 mph

Today
High -- | Low -- °F
--% Chance of Precip.
Yesterday
High -- | Low -- °F
Precip. -- in
Pressure 29.56 in
Visibility 1.7 miles
Clouds Few 10000 ft
Heat Index 105 °F
Dew Point 77 °F
Humidity 65%
Rainfall 0.00 in
Snow Depth Not available.
5:24 AM 7:22 PM
Waxing Gibbous, 67% visible
METAR VIDP 220100Z 00000KT 2800 HZ FEW100 32/20 Q1001 NOSIG
Pressure 29.56 in
Visibility 1.7 miles
Clouds Few 10000 ft
Heat Index 105 °F
Dew Point 77 °F
Humidity 65%
Rainfall 0.00 in
Snow Depth Not available.
5:24 AM 7:22 PM
Waxing Gibbous, 67% visible
METAR VIDP 220100Z 00000KT 2800 HZ FEW100 32/20 Q1001 NOSIG

Get Severe Weather Alerts

Thanks for signing up!

Be on the lookout for a verification email in your inbox.

You'll start receiving the daily forecast at 6 AM.

×

10-Day Weather Forecast

No radar image for this location.
×

Almanac

Astronomy

Jun. 22, 2018 Rise Set
Actual Time
Civil Twilight
Nautical Twilight
Astronomical Twilight
Moon
Length of Visible Light
Length of Day
Tomorrow will be .
, % of the Moon is Illuminated

Today's Extremes

Country Highs Country Lows

Community

WunderPhotos

Category 6

Welcome to Category 6. This is the collective home for Weather Underground's featured writeups by Dr. Jeff Masters (right), Bob Henson (left), Chris Burt, and other regular contributors.

Nearby

Air Quality

  Air Quality AQ Index Pollutant
Not available.

Snow Depth

Station Depth Elevation

Earthquake Activity

City Distance Mag. Time & Date
Minimum magnitude displayed is 2.5.

Coastal Water Temperatures

Place Temperature

Stations

Nearby Weather Stations

Station Location Temp. Windchill Dew Point Humidity Wind Precip. Elev Updated Type